Location: Unspecified
(48.7670°N, 0.0000°E)
Time: 02:43:16
(UTC+00:00)

Altair - Pass Details

Date: 02 July 2019
Orbit: 1501 x 1683 km, 47.2° (Epoch: 15 July)

Event Time Altitude Azimuth Distance (km) Brightness Sun altitude
Rises 16:18:48 0° 213° (SSW) 4,633 10.5 34.3°
Reaches altitude 10° 16:22:02 10° 206° (SSW) 3,666 9.9 33.7°
Maximum altitude 16:30:21 39° 141° (SE) 2,156 8.3 32.4°
Drops below altitude 10° 16:38:56 10° 77° (ENE) 3,789 9.1 31.0°
Sets 16:42:18 0° 71° (ENE) 4,803 9.6 30.4°
